Weather History for Providence, RI

Change the Weather History Date:

Wednesday, July 23, 2014

  Actual Average Record
Temperature  
Mean Temperature 79 °F 74 °F  
Max Temperature 88 °F 83 °F 97 °F (1978)
Min Temperature 70 °F 65 °F 54 °F (1950)
Degree Days  
Heating Degree Days 0 0  
Month to date heating degree days 0 0  
Since 1 June heating degree days 13 43  
Since 1 July heating degree days 0 0  
Cooling Degree Days 14 9  
Month to date cooling degree days 231 195  
Year to date cooling degree days 345 353  
Since 1 June cooling degree days 334 327  
Growing Degree Days 29 (Base 50)    
Moisture  
Dew Point 66 °F    
Average Humidity 67    
Maximum Humidity 79    
Minimum Humidity 55    
Precipitation  
Precipitation T in 0.10 in 3.80 in (1922)
Month to date precipitation 3.40 2.32  
Year to date precipitation 28.56 26.03  
Snow  
Snow 0.00 in 0.00 in 0.00 in (2002)
Month to date snowfall 0.0 0.0  
Since 1 June snowfall 0.0 0.0  
Since 1 July snowfall 0.0 0.0  
Snow Depth 0.00 in    
Sea Level Pressure  
Sea Level Pressure 29.90 in    
Wind  
Wind Speed 10 mph (SSW)    
Max Wind Speed 23 mph    
Max Gust Speed 27 mph    
Visibility 10 miles    
Events Thunderstorm    
T = Trace of Precipitation, MM = Missing Value Source: NWS Daily Summary

Daily Weather History Graph

Daily Weather History Graph

Search for Another Location

Airport:

Trip Planner

Search our weather history database for the weather conditions in past years. The results will help you decide how hot, cold, wet, or windy it might be!

Date:

Astronomy

Jul. 23, 2014 Rise Set
Actual Time 5:31 AM EDT 8:12 PM EDT
Civil Twilight 4:58 AM EDT 8:44 PM EDT
Nautical Twilight 4:18 AM EDT 9:25 PM EDT
Astronomical Twilight 3:32 AM EDT 10:11 PM EDT
Moon 2:48 AM EDT 5:38 PM EDT
Length of Visible Light 15h 45m
Length of Day
14h 41m
Waning Crescent, 10% of the Moon is Illuminated
Jul 23
Waning Crescent
Jul 26
New
Aug 3
First Quarter
Aug 10
Full
Aug 17
Last Quarter

Hourly Weather History & Observations

Time (EDT) Temp. Heat Index Dew Point Humidity Pressure Visibility Wind Dir Wind Speed Gust Speed Precip Events Conditions
12:51 AM 72.0 °F - 62.1 °F 71% 30.02 in 10.0 mi SW 6.9 mph - N/A   Clear
1:51 AM 71.1 °F - 62.1 °F 73% 30.01 in 10.0 mi SSW 8.1 mph - N/A   Clear
2:51 AM 72.0 °F - 62.1 °F 71% 29.99 in 10.0 mi SSW 3.5 mph - N/A   Clear
3:51 AM 71.1 °F - 62.1 °F 73% 29.99 in 10.0 mi South 3.5 mph - N/A   Clear
4:51 AM 70.0 °F - 62.1 °F 76% 29.98 in 10.0 mi South 5.8 mph - N/A   Clear
5:51 AM 70.0 °F - 63.0 °F 78% 29.97 in 10.0 mi SSW 5.8 mph - N/A   Partly Cloudy
6:51 AM 72.0 °F - 64.0 °F 76% 29.97 in 10.0 mi SSW 6.9 mph - N/A   Partly Cloudy
7:51 AM 75.0 °F - 64.9 °F 71% 29.97 in 10.0 mi SW 8.1 mph - N/A   Scattered Clouds
8:51 AM 77.0 °F - 66.9 °F 71% 29.96 in 10.0 mi SW 10.4 mph - N/A   Partly Cloudy
9:51 AM 80.1 °F 82.9 °F 69.1 °F 69% 29.95 in 10.0 mi SSW 9.2 mph - N/A   Scattered Clouds
10:51 AM 82.0 °F 85.9 °F 70.0 °F 67% 29.93 in 10.0 mi SSW 8.1 mph - N/A   Mostly Cloudy
11:51 AM 84.9 °F 90.1 °F 71.1 °F 63% 29.90 in 10.0 mi SW 8.1 mph - N/A   Scattered Clouds
1:51 PM 87.1 °F 92.0 °F 70.0 °F 57% 29.86 in 10.0 mi SSW 19.6 mph 23.0 mph N/A   Partly Cloudy
2:51 PM 87.1 °F 92.8 °F 71.1 °F 59% 29.85 in 10.0 mi SW 12.7 mph 21.9 mph N/A   Scattered Clouds
3:51 PM 84.9 °F 89.4 °F 70.0 °F 61% 29.83 in 9.0 mi SW 16.1 mph 27.6 mph N/A   Partly Cloudy
4:51 PM 84.0 °F 87.8 °F 69.1 °F 61% 29.81 in 10.0 mi SSW 17.3 mph 24.2 mph N/A   Scattered Clouds
5:51 PM 82.0 °F 84.9 °F 68.0 °F 62% 29.80 in 10.0 mi SSW 15.0 mph 21.9 mph N/A   Scattered Clouds
6:51 PM 79.0 °F - 68.0 °F 69% 29.80 in 10.0 mi SW 17.3 mph 23.0 mph N/A   Scattered Clouds
7:51 PM 75.9 °F - 66.9 °F 74% 29.81 in 10.0 mi SSW 13.8 mph - N/A   Mostly Cloudy
8:51 PM 75.0 °F - 66.0 °F 73% 29.83 in 10.0 mi SW 10.4 mph - N/A   Mostly Cloudy
9:51 PM 75.0 °F - 64.0 °F 69% 29.83 in 10.0 mi SSW 9.2 mph - N/A   Mostly Cloudy
10:51 PM 75.2 °F - 64.4 °F 69% 29.83 in 10.0 mi WSW 11.5 mph 17.3 mph N/A   Overcast
11:29 PM 75.2 °F - 64.4 °F 69% 29.80 in 10.0 mi SSW 4.6 mph - N/A Thunderstorm Thunderstorm
11:51 PM 75.0 °F - 64.9 °F 71% 29.80 in 10.0 mi South 6.9 mph - 0.00 in   Scattered Clouds